Lid_Strength_Index
1 -0 -1 -1 -1 -1 -1 -1 -1 -1 -1 -0 -1 -0 -1 -0 0 3 7 5 5 2 2 5 6 6 8 10 10 11 16 17 16 15 12 11 11 11 8 7 7 6 6 5 3
1 0 0 -1 -1 -1 -1 -1 -1 -1 -1 -1 -0 -0 -0 0 4 5 2 1 1 2 5 6 7 7 9 10 11 13 15 15 13 13 12 10 11 9 8 9 10 8 5 3 3
0 0 -0 -1 -1 -1 -1 -1 -1 -1 -1 -1 -0 -0 -0 2 6 7 -1 -1 0 3 5 7 7 8 8 9 11 13 15 13 13 13 10 10 11 9 8 10 7 8 6 4 4
-0 0 0 1 -1 -1 -1 -1 -1 -1 -1 -1 -0 -0 0 3 11 4 -1 -2 0 5 7 8 9 10 10 10 10 13 12 13 13 12 12 10 10 10 9 9 8 5 4 4 4
-0 0 1 1 -1 -1 -1 -1 -1 -1 -1 -1 -0 0 3 6 7 2 -1 -2 1 5 7 8 9 10 11 12 11 12 12 13 13 12 13 10 11 11 10 9 5 4 4 5 4
-1 -0 1 1 -0 -1 -1 -1 -1 -1 -1 -1 -0 1 3 9 2 2 1 0 3 5 6 7 9 8 11 12 10 12 12 12 13 13 13 12 12 11 11 6 6 5 5 5 4
-0 0 0 0 -0 -0 -1 -1 -1 -1 -1 -1 -0 2 4 6 3 1 1 1 3 4 7 7 6 6 8 10 9 12 14 14 13 13 14 13 13 12 11 6 7 6 6 5 4
-0 -0 1 0 -0 -0 -0 -1 -0 -1 -1 -1 -0 3 7 3 3 1 1 2 2 4 6 5 5 8 8 8 9 13 14 18 15 13 13 13 14 11 8 7 8 7 6 6 5
2 1 1 0 0 0 -0 -0 -0 -0 -1 -1 4 5 8 2 3 1 1 3 2 4 5 5 6 8 9 11 12 12 16 18 16 14 14 15 14 12 9 7 8 7 7 6 6
2 1 1 1 0 0 -0 -0 -0 -0 0 2 3 7 8 8 4 2 2 2 4 4 6 8 10 12 11 12 17 15 15 16 16 15 16 16 14 13 12 8 8 7 7 7 6
1 0 0 1 0 0 0 2 5 6 4 7 8 9 9 6 4 3 2 3 4 6 10 8 12 14 13 10 11 11 14 16 16 15 15 16 13 11 12 13 9 9 9 8 6
1 1 0 1 0 -0 1 5 5 4 10 7 6 9 8 5 7 5 2 7 8 11 9 11 13 10 10 11 10 14 13 14 15 15 15 16 15 13 13 13 12 9 10 9 9
2 2 0 1 0 1 3 4 3 4 10 10 7 9 9 6 7 7 4 6 9 11 11 13 10 10 12 12 14 14 16 16 15 16 16 17 16 15 13 14 13 13 12 11 9
2 2 1 1 2 2 4 3 3 5 13 12 9 9 9 8 9 6 6 7 9 11 10 11 9 10 12 14 13 16 14 15 16 16 18 17 20 17 14 13 14 13 14 13 13
2 2 1 0 3 4 3 3 4 5 20 11 10 7 9 9 9 8 6 8 10 10 10 12 12 12 13 13 11 13 14 15 15 17 17 19 20 18 17 15 14 13 13 12 12
3 3 3 1 2 2 1 3 5 14 20 13 11 11 11 11 11 9 9 7 7 10 9 11 11 12 12 12 10 13 14 15 16 18 20 17 19 20 18 17 14 12 12 12 12
3 3 3 1 4 1 3 6 14 18 13 15 14 12 12 14 13 10 12 12 13 15 15 12 12 12 12 13 12 12 15 20 20 22 20 20 20 17 17 16 13 11 11 11 12
3 3 3 1 2 2 4 10 18 15 14 13 13 12 14 13 14 12 13 14 13 13 14 16 17 12 12 12 15 14 15 20 23 23 20 20 21 18 15 15 14 13 13 13 12
4 4 3 3 2 3 8 15 15 15 14 14 13 15 16 13 14 13 13 13 12 12 15 15 15 12 12 12 12 15 16 16 20 24 22 21 19 17 16 15 14 12 13 13 12
7 6 4 2 2 5 10 13 15 13 12 12 16 15 17 14 16 15 13 12 13 11 12 14 17 14 12 11 12 14 13 18 18 24 25 22 22 19 18 15 14 13 12 12 12
7 10 5 2 3 8 13 12 13 11 10 13 15 15 15 15 15 14 14 13 11 12 12 13 14 16 13 14 14 15 16 16 16 19 22 23 20 18 16 15 14 13 11 11 12
10 14 6 3 10 10 12 12 10 12 11 12 13 14 14 13 15 14 14 12 9 10 12 12 14 17 16 14 12 12 13 14 17 20 21 20 19 17 16 16 15 14 12 11 11
14 14 7 4 13 13 10 12 11 12 12 13 13 13 13 13 15 14 13 10 9 10 12 12 15 19 17 15 14 14 15 14 14 17 19 20 18 16 16 15 14 14 12 11 11
13 14 12 7 9 11 12 13 13 11 12 11 12 12 13 13 13 14 14 11 10 9 8 9 13 15 18 17 15 16 14 14 15 17 17 17 17 16 15 14 14 12 11 11 11
13 14 14 13 12 10 11 12 13 13 11 11 13 12 13 15 15 15 13 12 11 9 10 10 14 15 15 15 13 15 14 13 14 14 17 15 17 16 15 14 14 12 11 11 11
12 13 13 13 11 10 10 12 13 12 11 12 13 13 13 14 14 15 13 13 13 12 11 12 17 15 17 14 15 16 14 14 13 13 14 14 14 12 14 14 13 12 11 11 10
10 11 12 13 11 11 12 12 13 11 11 10 11 12 13 13 10 9 9 9 10 11 11 12 15 18 19 17 16 18 15 15 14 13 13 15 13 13 13 13 12 11 10 10 9